Regional Weather Roundup
Issued by NWS

Home | Current Version | Previous Version | Graphics & Text | Print | Product List | Glossary On
Versions: 1 2 3 4 5 6 7 8 9 10 11 12 13 14 15 16 17 18 19 20 21 22 23 24 25 26 27 28 29 30 31 32 33 34 35 36 37 38 39 40 41 42 43 44 45 46 47 48 49 50
000
ASUS43 KLSX 290907
RWRMO

WEATHER SUMMARY FOR MISSOURI
NATIONAL WEATHER SERVICE SPRINGFIELD MO
400 AM CDT FRI APR 29 2016

NOTE: "FAIR" INDICATES FEW OR NO CLOUDS BELOW 12,000 FEET WITH NO
       SIGNIFICANT WEATHER AND/OR OBSTRUCTIONS TO VISIBILITY.
       CURRENT SKY AND/OR WEATHER CONDITIONS ARE NOT AVAILABLE FOR
       CHILLICOTHE AND FARMINGTON.

MOZ001>031-035>038-043-044-053-054-291000-
...NORTHERN AND WESTERN MISSOURI...

CITY           SKY/WX    TMP DP  RH WIND       PRES   REMARKS
KANSAS CTY INT LGT RAIN  48  45  89 N16       30.04F
KANSAS C DTWN  CLOUDY    51  45  79 NE6       30.07F
LEE`S SUMMIT   PTCLDY    50  45  83 NE9       30.08F
ST JOSEPH      CLOUDY    49  43  80 N5        30.12F
CHILLICOTHE      N/A     50  46  86 NW5       30.12R
KIRKSVILLE     CLOUDY    47  43  86 W6        30.10R

$$
MOZ066>068-077>081-088>096-101>105-291000-
...SOUTHWEST MISSOURI...

CITY           SKY/WX    TMP DP  RH WIND       PRES   REMARKS
SPRINGFIELD    MOCLDY    54  48  80 NE15      30.00F
JOPLIN         MOCLDY    53  49  86 NE16      29.96F

$$
MOZ032>034-039>042-045>050-055>058-069>072-291000-
...CENTRAL MISSOURI...

CITY           SKY/WX    TMP DP  RH WIND       PRES   REMARKS
COLUMBIA       CLOUDY    51  48  89 NW3       30.08R
JEFFERSON CITY CLOUDY    51  48  89 NW3       30.09R
ROLLA          PTCLDY    51  48  89 N5        30.05R
SEDALIA        CLOUDY    51  47  86 N8        30.09S
WHITEMAN AFB   CLOUDY    49  49 100 N5        30.06F
WARRENSBURG    MOCLDY    50  45  81 N3        30.08S
OSAGE BEACH    PTCLDY    52  41  66 N5        30.07S

$$
MOZ051-052-059>065-291000-
...EAST CENTRAL MISSOURI...

CITY           SKY/WX    TMP DP  RH WIND       PRES   REMARKS
ST LOUIS INTL  CLOUDY    56  49  77 W5        30.07R
SPIRIT OF STL  CLOUDY    53  52  96 CALM      30.06R
ST CHARLES     CLOUDY    54  52  93 W3        30.06R

$$
MOZ072>076-082>087-097>100-106>115-291000-
...SOUTH CENTRAL AND SOUTHEAST MISSOURI...

CITY           SKY/WX    TMP DP  RH WIND       PRES   REMARKS
CAPE GIRARDEAU CLOUDY    58  52  80 NE7       30.02R
FARMINGTON     PTCLDY    51  48  89 N3        30.06R
POPLAR BLUFF   CLOUDY    58  51  78 NE9       30.00R
WEST PLAINS    CLOUDY    54  46  74 NE8       29.99F

$$



USA.gov is the U.S. government's official web portal to all federal, state and local government web resources and services.